Weather in Kaliakra

Bulgaria     43°22′00″N   28°27′59″E
temp.,
°C
wind,
m/s
gust,
m/s
humid.,
%
clouds,
%
prec.,
mm/h
press.,
hPa
HPBL,
m
20 april, tue
tue2000:00+9ne5693100 3.5 1010326
03:00+9nne4592100 4.1 1009357
06:00+9nnw5590100 0.4 1008384
09:00+9nw5585100 0.7 1010405
12:00+9w6787100 0.3 1011508
15:00+9wnw5789100 1.1 1013345
18:00+10wsw6786100 0.1 1013200
21:00+10wsw688495 0.1 1015146
21 april, wed
wed2100:00+10sw67835 0.0 1015119
03:00+10sw68844 0.0 1015154
06:00+10wsw56845 0.0 1016156
09:00+10sw45825 0.0 1017134
12:00+10sw558124 0.0 101889
15:00+11s788651 0.0 101795
18:00+11s688547 0.0 1017110
21:00+11ssw4686100 0.0 101867
22 april, thu
thu2200:00+11sw46875 0.0 101974
03:00+10sw33875 0.0 101923
06:00+10ssw45895 0.0 101952
09:00+10sw33867 0.0 102140
12:00+11ssw33822 0.0 102144
15:00+11s57850 0.0 102181
18:00+12sse698217 0.0 102096
21:00+11s5883100 0.0 102087
23 april, fri
fri2300:00+11s598590 0.0 1020109
03:00+11s6987100 0.0 1018130
06:00+11s5888100 0.0 1018109
09:00+11s5689100 0.0 101895
12:00+11ssw5686100 0.0 101878
15:00+12ssw4482100 0.0 101738
18:00+12wsw338631 0.3 101816
21:00+12wnw449024 0.8 101921
24 april, sat
sat2400:00+11n458994 0.3 102171
03:00+10n458871 0.3 1021130
06:00+10nne338871 0.0 1022166
09:00+10nne3480100 0.0 1022268
12:00+10ene3376100 0.0 1023212
15:00+10e2275100 0.0 1022203
18:00+10e4477100 0.0 1021231
21:00+10e3480100 0.0 1021200